Location: Bédeille
(43.0872°N, 1.1041°E)
Time: 01:55:33
(UTC+00:00)

Cosmos 1461 - Pass Details

Date: 03 February 2023
Orbit: 492 x 644 km, 65.0° (Epoch: 27 March)

Event Time Altitude Azimuth Distance (km) Brightness Sun altitude
Rises 17:36:54 0° 189° (S) 2,707 6.7 -5.4°
Reaches altitude 10° 17:39:11 10° 180° (S) 1,845 5.7 -5.8°
Maximum altitude 17:42:58 34° 115° (ESE) 960 3.7 -6.5°
Drops below altitude 10° 17:46:56 10° 50° (NE) 1,949 5.1 -7.2°
Enters shadow 17:47:52 - 46° (NE) 2,293 5.4 -7.3°
